Probability
0 0 0 0 0 0 0 0 0 0 0 0 0 0 0 0 0 0 0 0 0 0 0 0 0 0 0 0 0 0 0 0 0 0 0 0 0 0 0 0 0 0 0 0
0 0 0 0 0 0 0 0 0 0 0 0 0 0 0 0 0 0 0 0 0 0 0 0 0 0 0 0 0 0 0 0 0 0 0 0 0 0 0 0 0 0 0 0
0 0 0 0 0 0 0 0 0 0 0 0 0 0 0 0 0 0 0 0 0 0 0 0 0 0 0 0 0 0 0 0 0 0 0 0 0 0 0 0 0 0 0 0
0 0 0 0 0 0 0 0 0 0 0 0 0 0 0 0 0 0 0 0 0 0 0 0 0 0 0 0 0 0 0 0 0 0 0 0 0 0 0 0 0 0 0 0
0 0 0 0 0 0 0 0 0 0 0 0 0 0 0 0 0 0 0 0 0 0 0 0 0 0 0 0 0 0 0 0 0 0 0 0 0 0 0 0 0 0 0 0
0 0 0 0 0 0 0 0 0 0 0 0 0 0 0 0 0 0 0 0 0 0 0 0 0 0 0 0 0 0 0 0 0 0 0 0 0 0 0 0 0 0 0 0
0 0 0 0 0 0 0 0 0 0 0 0 0 0 0 0 0 0 0 0 0 0 0 0 0 0 0 0 0 0 0 0 0 0 0 0 0 0 0 0 0 0 0 0
0 0 0 0 0 0 0 0 0 0 0 0 0 0 0 0 0 0 0 0 0 0 0 0 0 0 0 0 0 0 0 0 0 0 0 0 0 0 0 0 0 0 0 0
0 0 0 0 0 0 0 0 0 0 0 0 0 0 0 0 0 0 0 0 0 0 0 0 0 0 0 0 0 0 0 0 0 0 0 0 0 0 0 0 0 0 0 0
0 0 0 0 0 0 0 0 0 0 0 0 0 0 0 0 0 0 0 0 0 0 0 0 0 0 0 0 0 0 0 0 0 0 0 0 0 0 0 0 0 0 0 0
0 0 0 0 0 0 0 0 0 0 0 0 0 0 0 0 0 0 0 0 0 0 0 0 0 0 0 0 0 0 0 0 0 0 0 0 0 0 0 0 0 0 0 0
0 0 0 0 0 0 0 0 0 0 0 0 0 0 0 0 0 0 0 0 0 0 0 0 0 0 0 0 0 0 0 0 0 0 0 0 0 0 0 0 0 0 0 0
0 0 0 0 0 0 0 0 0 0 0 0 0 0 0 0 0 0 0 0 0 0 0 0 0 0 0 0 0 0 0 0 0 0 0 0 0 0 0 0 0 0 0 0
0 0 0 0 0 0 0 0 0 0 0 0 0 0 0 0 0 0 0 0 0 0 0 0 0 0 0 0 0 0 0 0 0 0 0 0 0 0 0 0 0 0 0 0
0 0 0 0 0 0 0 0 0 0 0 0 0 0 0 0 0 0 0 0 0 0 0 0 0 0 0 0 0 0 0 0 0 0 0 0 0 0 0 0 0 0 0 0
0 0 0 0 0 0 0 0 0 0 0 0 0 0 0 0 0 0 0 0 0 0 0 0 0 0 0 0 0 0 0 0 0 0 0 0 0 0 0 0 0 0 0 0
0 0 0 0 0 0 0 0 0 0 0 0 0 0 0 0 0 0 0 0 0 0 0 0 0 0 0 0 0 0 0 0 0 0 0 0 0 0 0 0 0 0 0 0
0 0 0 0 0 0 0 0 0 0 0 0 0 0 0 0 0 0 0 0 0 0 0 0 0 0 0 0 0 0 0 0 0 0 0 0 0 0 0 0 0 0 0 0
0 0 0 0 0 0 0 0 0 0 0 0 0 0 0 0 0 0 0 0 0 0 0 0 0 0 0 0 0 0 0 0 0 0 0 0 0 0 0 0 0 0 0 0
0 0 0 0 0 0 0 0 0 0 0 0 0 0 0 0 0 0 0 0 0 0 0 0 0 0 0 0 0 0 0 0 0 0 0 0 0 0 0 0 0 0 0 0
0 0 0 0 0 0 0 0 0 0 0 0 0 0 0 0 0 0 0 0 0 0 0 0 0 0 0 0 0 0 0 0 0 0 0 0 0 0 0 0 0 0 0 0
0 0 0 0 0 0 0 0 0 0 0 0 0 0 0 0 0 0 0 0 0 0 0 0 0 0 0 0 0 0 0 0 0 0 0 0 0 0 0 0 0 0 0 0
0 0 0 0 0 0 0 0 0 0 0 0 0 0 0 0 0 0 0 0 0 0 0 0 0 0 0 0 0 0 0 0 0 0 0 0 0 0 0 0 0 0 0 0
0 0 0 0 0 0 0 0 0 0 0 0 0 0 0 0 0 0 0 0 0 0 0 0 0 0 0 0 0 0 0 0 0 0 0 0 0 0 0 0 0 0 0 0
0 0 0 0 0 0 0 0 0 0 0 0 0 0 0 0 0 0 0 0 0 0 0 0 0 0 0 0 0 0 0 0 0 0 0 0 0 0 0 0 0 0 0 0
0 0 0 0 0 0 0 0 0 0 0 0 0 0 0 0 0 0 0 0 0 0 0 0 0 0 0 0 0 0 0 0 0 0 0 0 0 0 0 0 0 0 0 0
Wind_Speed
3 3 4 4 5 5 6 6 8 6 3 3 7 9 8 5 5 5 4 4 3 3 3 4 4 3 3 2 2 2 2 2 2 2 2 1 1 1 0 0 1 2 2 3
2 5 3 2 3 5 7 8 7 5 2 3 6 10 8 7 6 5 4 4 3 2 3 3 4 3 3 2 2 1 2 2 2 1 1 1 1 1 1 1 1 1 2 2
4 1 1 3 3 5 7 6 6 5 5 5 6 8 6 4 3 3 3 3 3 3 3 3 3 3 2 2 2 1 1 1 1 1 1 1 1 1 1 0 1 1 1 2
4 2 1 3 4 5 6 3 5 5 4 4 3 6 4 5 4 4 3 2 1 2 2 3 3 3 3 2 1 1 1 1 1 1 2 2 2 1 2 1 1 1 2 2
2 0 2 4 3 4 2 3 4 5 5 6 5 5 6 3 4 4 3 2 1 2 3 2 2 2 2 2 2 1 1 1 1 1 1 1 1 1 0 1 1 1 1 2
3 1 1 2 2 2 1 3 4 4 3 6 7 6 6 3 2 3 3 2 2 2 2 2 2 2 2 2 1 1 1 1 1 1 1 1 1 0 1 1 1 1 1 1
4 4 2 1 1 1 1 0 1 2 3 6 2 4 6 0 2 3 3 3 2 2 2 2 2 2 2 2 1 2 2 1 1 1 1 1 1 1 2 1 1 1 1 1
3 4 5 4 3 2 4 3 3 3 4 3 1 6 4 1 3 4 4 4 3 3 2 1 1 1 1 1 1 2 2 2 1 1 0 1 1 1 1 1 1 1 1 1
3 3 1 1 1 1 3 4 2 2 1 3 5 5 2 1 2 2 3 3 2 2 2 1 1 1 1 1 1 2 2 1 1 1 0 0 0 0 0 0 0 1 0 0
2 3 1 0 1 3 2 2 1 2 3 5 5 5 4 3 3 2 2 2 1 2 2 1 1 1 1 1 1 1 1 1 1 0 0 0 0 0 0 0 0 0 0 0
2 3 2 2 5 5 3 3 3 3 4 4 4 5 1 3 4 4 3 2 1 1 1 1 1 1 1 1 1 1 1 1 1 0 0 0 0 0 0 1 0 0 0 0
1 2 4 5 2 2 3 5 5 4 5 4 4 6 1 2 2 2 1 1 1 1 1 1 1 1 1 1 1 1 1 1 1 1 0 0 0 1 1 1 0 0 0 0
1 2 2 2 2 1 3 4 4 3 2 4 5 8 0 1 1 0 1 1 1 2 1 1 1 1 0 0 0 0 1 1 1 1 1 0 0 1 1 1 1 1 1 1
1 3 6 7 4 2 5 6 6 5 5 7 10 10 7 4 3 2 1 1 1 1 1 1 1 0 0 0 0 0 0 1 1 1 1 1 0 0 0 1 1 1 1 1
2 4 6 8 7 5 8 10 10 11 11 10 11 12 12 7 5 3 2 1 1 1 1 1 0 1 1 0 0 0 0 0 1 1 1 1 0 0 0 1 1 1 1 1
3 4 3 8 7 6 10 12 13 14 13 14 14 17 10 6 4 3 3 2 2 2 1 1 0 1 1 1 1 0 0 0 1 1 1 1 0 0 0 0 1 1 1 1
4 4 4 6 3 4 12 13 14 12 12 11 15 15 6 5 4 3 2 2 2 1 1 1 0 1 1 1 1 1 1 1 1 1 1 1 1 0 0 1 1 1 1 1
6 5 4 3 1 10 11 4 8 11 11 11 10 7 4 3 1 1 1 2 1 0 0 0 0 1 1 0 0 0 1 1 1 1 1 1 1 0 0 0 1 1 1 1
7 6 4 4 6 11 10 5 5 6 9 7 9 7 3 0 1 1 1 2 1 1 1 0 0 0 0 1 1 1 1 1 1 1 1 1 1 1 1 1 1 1 1 1
4 5 5 6 7 9 6 1 1 1 7 3 3 3 1 2 1 2 2 2 2 1 1 1 1 2 1 1 1 1 1 1 1 2 2 1 1 2 2 2 2 1 1 1
4 6 9 10 9 10 4 2 4 4 5 2 2 1 1 2 2 1 2 2 2 2 2 1 1 1 0 1 1 1 1 2 2 1 1 1 1 2 2 1 1 1 1 1
9 8 8 7 10 12 2 3 5 3 1 2 2 2 1 0 2 2 1 1 2 2 2 2 1 1 1 1 1 1 2 2 1 1 1 1 1 2 1 1 1 1 1 1
9 9 6 9 9 3 3 3 1 1 1 1 1 1 1 0 0 1 1 1 2 2 2 2 1 1 1 1 0 2 3 2 1 1 1 2 1 2 2 2 2 1 1 2
5 4 5 6 6 3 2 1 2 1 0 1 1 1 0 1 2 2 2 2 2 2 2 2 2 2 2 2 2 2 3 2 1 2 2 2 2 2 2 2 2 2 2 2
6 4 6 8 6 3 4 2 1 1 1 1 1 1 0 1 2 2 2 2 2 2 2 2 2 3 3 3 3 2 2 2 2 2 3 2 2 2 2 2 2 3 3 3
5 6 7 8 5 5 4 1 1 1 1 1 1 1 2 1 2 2 2 2 2 3 3 3 3 3 4 3 3 3 2 1 2 3 3 3 2 2 2 2 2 4 4 5
Wind_Direction
194 224 223 228 239 279 302 288 284 290 308 272 262 266 266 246 234 229 227 215 202 184 135 118 121 115 110 100 99 119 135 146 138 134 134 137 159 163 165 169 164 155 156 159
207 238 253 283 277 275 279 280 282 296 337 298 275 273 261 241 226 220 216 208 194 172 133 127 125 124 130 132 121 113 126 144 149 152 154 168 166 170 164 150 123 143 153 167
226 279 282 261 265 267 265 266 280 297 318 274 273 275 239 225 203 197 208 206 192 176 163 148 141 139 133 127 123 108 113 128 141 130 119 89 83 70 75 158 180 180 168 182
249 271 279 258 257 263 265 305 300 298 296 270 249 285 262 218 211 202 193 191 153 121 122 124 129 141 143 136 122 133 153 134 128 135 144 150 166 190 204 194 190 181 173 181
247 183 250 250 264 271 279 333 296 276 264 276 246 252 273 215 210 197 171 154 113 110 103 113 124 132 131 132 142 161 159 129 115 131 151 160 187 236 173 153 159 175 179 177
265 320 292 293 323 295 320 306 282 260 242 257 233 221 269 225 204 169 162 144 114 105 106 103 98 103 118 129 148 157 149 120 109 129 157 163 179 190 136 175 184 194 193 185
249 219 201 256 257 213 247 292 318 286 227 245 211 221 253 105 81 116 140 139 119 110 116 118 115 128 146 151 168 166 161 153 149 151 190 210 214 197 188 195 196 207 203 204
232 239 187 199 223 215 225 222 205 236 255 285 253 236 247 118 87 83 96 119 125 124 124 125 135 143 159 167 181 179 170 172 162 159 213 259 261 215 206 208 193 214 227 219
245 244 72 102 318 268 226 233 267 282 291 278 246 235 241 114 100 107 106 108 135 146 144 141 126 141 158 175 193 185 176 171 159 166 187 258 292 22 119 168 167 216 260 267
289 266 226 135 262 253 253 284 181 212 238 256 260 243 240 202 197 178 159 166 166 133 135 131 124 131 141 165 182 159 167 159 136 138 270 338 305 184 99 75 53 1 322 331
290 238 234 219 211 211 193 219 223 230 237 233 262 259 266 178 177 183 202 187 147 137 132 121 111 122 132 133 144 158 164 128 100 103 336 7 345 48 97 107 75 339 347 193
237 244 245 231 234 301 230 218 202 209 238 234 259 268 15 92 130 156 182 141 118 115 103 96 90 82 86 123 147 163 165 162 165 157 157 124 24 62 78 77 66 21 13 35
170 198 266 277 252 276 259 242 229 226 240 232 236 259 189 82 68 208 173 159 136 127 109 84 84 90 100 118 93 144 148 153 146 140 148 110 55 69 59 36 41 31 23 29
208 214 216 235 252 224 243 244 227 212 224 240 239 258 270 269 262 262 237 194 163 145 117 88 63 32 56 86 73 35 61 139 142 137 130 106 55 43 58 21 35 20 12 0
183 232 240 260 272 267 255 245 227 223 226 235 251 257 262 266 260 256 229 194 166 158 139 117 45 0 13 25 18 29 65 120 136 144 150 166 111 34 59 31 15 5 358 331
200 238 255 268 261 268 270 257 241 237 236 243 257 263 263 271 263 245 225 196 195 196 179 154 22 13 346 300 249 229 219 169 129 149 168 150 112 45 20 351 349 348 339 339
198 202 232 261 264 292 262 235 227 231 227 226 243 253 257 256 251 227 205 180 182 179 174 168 226 266 286 277 223 206 211 157 143 178 191 154 143 114 324 312 327 311 306 311
201 204 225 256 245 240 248 207 213 228 239 232 245 261 259 253 275 77 114 130 96 20 161 183 248 278 272 249 143 152 156 159 166 198 214 197 178 211 281 290 274 286 292 274
213 198 213 219 244 264 270 234 212 226 255 237 242 253 264 134 61 358 47 89 100 71 54 52 248 263 186 136 124 136 159 168 177 217 238 239 214 217 236 247 255 270 274 280
222 205 213 222 233 245 257 197 146 174 267 265 227 233 218 113 228 253 73 72 62 59 59 42 45 58 67 42 73 143 200 205 232 243 248 246 230 225 235 242 260 276 267 271
190 209 220 230 240 256 263 164 121 187 252 13 30 16 122 197 233 59 52 45 49 48 31 37 54 63 62 69 86 214 235 246 263 266 263 253 247 246 245 250 268 267 268 280
192 198 213 216 232 246 186 138 186 222 10 34 27 14 5 18 60 58 40 24 26 25 18 23 23 349 7 88 98 268 262 274 295 283 258 258 260 258 249 234 257 253 237 247
210 207 204 208 226 250 153 175 211 29 349 359 6 4 8 343 295 332 337 340 348 350 347 349 334 321 342 8 226 267 293 305 300 287 261 255 255 256 238 223 230 230 226 238
236 237 237 250 250 244 236 274 330 10 343 6 25 346 321 263 280 291 304 315 323 325 329 331 327 312 310 317 313 295 316 325 265 248 257 249 240 253 250 237 228 227 225 230
225 210 234 250 260 276 257 237 241 280 23 35 12 350 293 241 278 299 301 304 307 314 320 316 303 293 298 310 307 315 326 332 287 262 259 252 239 235 242 245 240 241 242 232
212 210 220 240 227 224 246 223 178 181 228 271 298 318 334 302 279 293 290 294 299 301 307 308 303 300 301 301 292 297 298 273 257 258 255 250 243 236 233 244 275 265 261 268